User: anonymous   Login
Location: *
(51.1248°S, 108.4023°W)
Time: 09:03:11
(UTC+00:00)
Language:

Cosmos 2297 Rocket - Orbit

View from above orbital plane
View from above orbital plane
View from above satellite
View from above satellite

Ground track
Ground track

The orbit data is extracted from the following two-line orbital elements,

1 23405U 94077B   21259.51847450 -.00000256  00000-0 -10717-3 0  9998
2 23405  70.9830 191.5113 0001579 191.5478 168.5609 14.15241236384864
Epoch (UTC): 16 September 2021 12:26:36
Eccentricity: 0.0001579
inclination: 70.9830°
perigee height: 840 km
apogee height: 842 km
right ascension of ascending node: 191.5113°
argument of perigee: 191.5478°
revolutions per day: 14.15241236
mean anomaly at epoch: 168.5609°
orbit number at epoch: 38486

The dashed part of the orbit path shows where the satellite is in the earth's shadow,  

DLR